Joplin, MO

1:48 AM CDT on October 23, 2019 (GMT -0500)
Joplin Regional

Weather History for KJLN - August, 2019

Change the Weather History Date:

Wednesday, August 7, 2019

  Actual Average Record
Temperature  
Mean Temperature 75 °F 81 °F  
Max Temperature 81 °F 92 °F 107 °F (2011)
Min Temperature 69 °F 70 °F 53 °F (1997)
Degree Days  
Heating Degree Days 0 0  
Month to date heating degree days 0 0  
Since 1 June heating degree days 1 5  
Since 1 July heating degree days 0 0  
Cooling Degree Days 10 16  
Month to date cooling degree days 90 112  
Year to date cooling degree days 941 1083  
Since 1 June cooling degree days 788 903  
Growing Degree Days 25 (Base 50)    
Moisture  
Dew Point 69 °F    
Average Humidity 84    
Maximum Humidity 93    
Minimum Humidity 74    
Precipitation  
Precipitation 0.55 in 0.10 in 2.02 in (1960)
Month to date precipitation 1.39 0.69  
Year to date precipitation 44.30 28.31  
Sea Level Pressure  
Sea Level Pressure 29.91 in    
Wind  
Wind Speed 4 mph (ENE)    
Max Wind Speed 29 mph    
Max Gust Speed 39 mph    
Visibility 9 miles    
Events Rain , Thunderstorm    
T = Trace of Precipitation, MM = Missing Value Source: NWS Daily Summary

Daily Weather History Graph

Daily Weather History Graph

Search for Another Location

Airport or City:

Astronomy

Aug. 07, 2019 Rise Set
Actual Time 6:27 AM CDT 8:19 PM CDT
Civil Twilight 5:59 AM CDT 8:47 PM CDT
Nautical Twilight 5:25 AM CDT 9:21 PM CDT
Astronomical Twilight 4:48 AM CDT 9:58 PM CDT
Moon 1:50 PM CDT (8/7) 12:15 AM CDT (8/7)
Length of Visible Light 14h 48m
Length of Day
13h 51m
Waxing Crescent, 50% of the Moon is Illuminated
Aug 7
Waxing Crescent
Aug 7
First Quarter
Aug 15
Full
Aug 23
Last Quarter
Aug 30
New

Hourly Weather History & Observations

Time (CDT) Temp. Heat Index Dew Point Humidity Pressure Visibility Wind Dir Wind Speed Gust Speed Precip Events Conditions
12:53 AM 71.1 °F - 66.9 °F 87% 29.87 in 10.0 mi Calm Calm - N/A   Clear
1:53 AM 71.1 °F - 68.0 °F 90% 29.87 in 10.0 mi Calm Calm - N/A   Clear
2:53 AM 71.1 °F - 69.1 °F 93% 29.87 in 10.0 mi Calm Calm - N/A   Clear
3:53 AM 71.1 °F - 69.1 °F 93% 29.87 in 10.0 mi East 3.5 mph - N/A   Clear
4:53 AM 71.1 °F - 69.1 °F 93% 29.86 in 10.0 mi Calm Calm - N/A   Clear
5:53 AM 71.1 °F - 69.1 °F 93% 29.86 in 10.0 mi Calm Calm - N/A   Clear
6:53 AM 72.0 °F - 70.0 °F 93% 29.87 in 10.0 mi Calm Calm - N/A   Clear
7:53 AM 75.9 °F - 72.0 °F 87% 29.89 in 10.0 mi Calm Calm - N/A   Clear
8:53 AM 78.1 °F - 73.9 °F 87% 29.90 in 10.0 mi Calm Calm - N/A   Clear
9:53 AM 81.0 °F 86.2 °F 73.9 °F 79% 29.91 in 10.0 mi Variable 4.6 mph - N/A   Clear
10:53 AM 72.0 °F - 68.0 °F 87% 29.98 in 10.0 mi NNW 17.3 mph 25.3 mph 0.00 in   Scattered Clouds
11:53 AM 72.0 °F - 68.0 °F 87% 30.06 in 10.0 mi NNW 6.9 mph - N/A   Mostly Cloudy
11:55 AM 71.6 °F - 66.2 °F 83% 30.09 in 10.0 mi NNW 6.9 mph - N/A   Mostly Cloudy
12:53 PM 69.1 °F - 68.0 °F 96% 29.96 in 6.0 mi ENE 11.5 mph - 0.04 in Rain , Thunderstorm Thunderstorms and Rain
1:14 PM 69.1 °F - 66.9 °F 93% 29.94 in 6.0 mi East 13.8 mph 21.9 mph 0.04 in Rain Light Rain
1:53 PM 71.1 °F - 68.0 °F 90% 29.94 in 10.0 mi Variable 3.5 mph - 0.05 in   Scattered Clouds
2:26 PM 70.0 °F - 66.9 °F 90% 30.05 in 3.0 mi WNW 11.5 mph - 0.05 in Rain , Thunderstorm Heavy Thunderstorms and Rain
2:28 PM 70.0 °F - 66.9 °F 90% 30.04 in 1.8 mi WNW 9.2 mph - 0.07 in Rain , Thunderstorm Heavy Thunderstorms and Rain
2:48 PM 69.8 °F - 68.0 °F 94% 30.00 in 2.5 mi SE 3.5 mph - 0.19 in Rain , Thunderstorm Thunderstorms and Rain
2:53 PM 69.1 °F - 68.0 °F 96% 29.96 in 5.0 mi Variable 5.8 mph - 0.19 in Rain , Thunderstorm Light Thunderstorms and Rain
3:46 PM 72.0 °F - 68.0 °F 87% 29.89 in 10.0 mi ESE 11.5 mph 20.7 mph 0.04 in Rain Light Rain
3:53 PM 73.0 °F - 66.9 °F 81% 29.86 in 10.0 mi SSE 9.2 mph - 0.04 in Rain Light Rain
4:53 PM 79.0 °F - 70.0 °F 74% 29.83 in 10.0 mi Variable 4.6 mph - 0.00 in   Clear
5:53 PM 79.0 °F - 70.0 °F 74% 29.85 in 10.0 mi SW 3.5 mph - N/A   Clear
6:19 PM 77.0 °F - 70.0 °F 79% 29.92 in 10.0 mi North 13.8 mph - N/A   Scattered Clouds
6:39 PM 75.9 °F - 70.0 °F 82% 29.91 in 10.0 mi Variable 5.8 mph - N/A Thunderstorm Thunderstorm
6:53 PM 75.0 °F - 70.0 °F 84% 29.89 in 10.0 mi NW 6.9 mph - N/A Thunderstorm Thunderstorm
7:19 PM 75.0 °F - 64.9 °F 71% 29.93 in 10.0 mi North - - 0.00 in Rain , Thunderstorm Light Thunderstorms and Rain
7:46 PM 72.0 °F - 64.9 °F 78% 29.88 in 6.0 mi South 21.9 mph - 0.20 in Rain , Thunderstorm Light Thunderstorms and Rain
7:53 PM 71.1 °F - 64.9 °F 81% 29.83 in 7.0 mi South 17.3 mph 27.6 mph 0.21 in Rain , Thunderstorm Light Thunderstorms and Rain
8:53 PM 71.1 °F - 68.0 °F 90% 29.86 in 10.0 mi Calm Calm - 0.00 in Thunderstorm Thunderstorm
9:04 PM 70.0 °F - 68.0 °F 93% 29.91 in 10.0 mi WNW 10.4 mph - N/A Thunderstorm Clear
9:53 PM 71.1 °F - 69.1 °F 93% 29.87 in 10.0 mi East 8.1 mph - 0.01 in Rain , Thunderstorm Light Rain
10:22 PM 71.1 °F - 69.1 °F 93% 29.90 in 10.0 mi East 5.8 mph - 0.01 in Rain Light Rain
10:39 PM 71.1 °F - 69.1 °F 93% 29.92 in 10.0 mi Variable 3.5 mph - 0.01 in Thunderstorm Scattered Clouds
10:53 PM 71.1 °F - 69.1 °F 93% 29.89 in 10.0 mi ESE 3.5 mph - 0.01 in Thunderstorm Partly Cloudy
11:04 PM 70.0 °F - 69.1 °F 97% 29.92 in 10.0 mi North 4.6 mph - N/A Thunderstorm Thunderstorm
11:19 PM 70.0 °F - 69.1 °F 97% 29.89 in 10.0 mi East 6.9 mph - N/A Thunderstorm Partly Cloudy
11:53 PM 71.1 °F - 68.0 °F 90% 29.90 in 10.0 mi Calm Calm - 0.00 in   Partly Cloudy